Regional Weather Roundup
Issued by NWS Sioux Falls, SD

Home | Current Version | Previous Version | Graphics & Text | Print | Product List | Glossary On
Versions: 1 2 3 4 5 6 7 8 9 10 11 12 13 14 15 16 17 18 19 20 21 22 23 24 25 26 27 28 29 30 31 32 33 34 35 36 37 38 39 40 41 42 43 44 45 46 47 48 49 50
259
ASUS43 KFSD 161002
RWRFSD

WEATHER ROUNDUP FOR SE SOUTH DAKOTA/SW MINNESOTA/NW IOWA
NATIONAL WEATHER SERVICE SIOUX FALLS SD
400 AM CST SAT DEC 16 2017

NOTE: "FAIR" INDICATES FEW OR NO CLOUDS BELOW 12,000 FEET WITH NO
SIGNIFICANT WEATHER AND OR OBSTRUCTIONS TO VISIBILITY.


SDZ038>040-050-052>070-161100-
SOUTHEAST SOUTH DAKOTA

CITY           SKY/WX    TMP DP  RH WIND       PRES   REMARKS
BROOKINGS      CLOUDY    29  25  85 NW3       29.65R
CHAMBERLAIN    CLOUDY    33  25  71 CALM      29.71R
HURON          PTCLDY    31  25  78 W3        29.68R
MADISON        FAIR      32  28  86 NW10      29.65S WCI  24
MITCHELL       CLOUDY    33  25  72 NW10      29.69R WCI  25
SIOUX FALLS    PTCLDY    33  27  78 W9        29.66R WCI  25
WINNER         FAIR      34  23  64 W8        29.72R WCI  27
YANKTON        CLOUDY    30  24  78 W7        29.69R WCI  23
$$

MNZ071-072-080-081-089-090-097-098-161100-
SOUTHWEST MINNESOTA

CITY           SKY/WX    TMP DP  RH WIND       PRES   REMARKS
FAIRMONT       CLOUDY    30  25  81 SW6       29.64F WCI  24
JACKSON        CLOUDY    30  27  86 SW7       29.64S WCI  23
LUVERNE        PTCLDY    30  25  80 NW5       29.66R WCI  25
MARSHALL       CLOUDY    33  26  75 W12       29.63R WCI  24
MONTEVIDEO     PTCLDY    27  23  86 CALM      29.64R
PIPESTONE      CLOUDY    34  27  75 NW8       29.63S WCI  27
REDWOOD FALLS  CLOUDY    30  28  92 SE5       29.63R WCI  25
WINDOM           N/A     32  19  59 SW9       29.63R WCI  24
WORTHINGTON    CLOUDY    32  26  78 W10       29.64S WCI  24
$$

IAZ001>003-012>014-020>022-031-032-NEZ013-014-SDZ071-161100-
NORTHWEST IOWA

CITY           SKY/WX    TMP DP  RH WIND       PRES   REMARKS
CHEROKEE       CLOUDY    28  23  84 S5        29.68S WCI  22
DENISON        PTCLDY    36  23  60 SW8       29.72S
ESTHERVILLE    CLEAR     28  24  85 W8        29.64S WCI  20
LE MARS        PTCLDY    28  23  80 CALM      29.68S
ORANGE CITY    CLOUDY    28  27  93 W5        29.67R WCI  23
SHELDON        CLOUDY    23  21  93 CALM      29.65R
SIOUX CITY     PTCLDY    24  20  84 SE7       29.70R WCI  16
SPENCER        CLOUDY    30  23  75 W7        29.66R WCI  23
STORM LAKE     CLOUDY    30  23  74 SW10      29.67S WCI  21
$$

ABBREVIATIONS USED IN REMARKS
   TC - TEMPERATURE IN CELSIUS
  WCI - WIND CHILL INDEX
   HX - HEAT INDEX
  VSB - VISIBILITY





USA.gov is the U.S. government's official web portal to all federal, state and local government web resources and services.